Вернуться в каталог

COSMOS 1375 DEB

АктивенLEO
NORAD 26498·DEBRIS·🇷🇺 Russia

Запущен Jun 6, 1982 с Plesetsk Cosmodrome

Loading…

Ближайшие Пролёты (ближайшие 24 часа)

TLE

УстаревшееSource: Space-Track

Эпоха: Aug 24, 2026, 04:24 UTC

1 26498U 82055BP  26236.18353810  .00001185  00000-0  78434-3 0  9991
2 26498  65.8130  77.6170 0016205 116.2106 244.0640 14.05262833671865

Отслеживайте COSMOS 1375 DEB в реальном времени с AllMySat

Download on the App Store